Temp
72 71 70 71 69 68 66 66 67 66 68 68 70 69 69 67 66 67 65 64 63 63
72 71 70 69 68 67 66 67 67 67 66 68 69 70 67 66 66 67 65 64 64 63
70 70 69 69 67 67 67 67 66 67 66 67 68 68 66 65 65 64 65 65 64 63
69 68 68 67 67 66 67 67 67 68 68 68 68 66 65 64 65 65 63 63 63 62
69 68 67 67 66 67 67 69 68 67 66 66 66 64 63 63 63 62 61 61 61 61
67 67 66 66 67 67 67 67 68 68 67 67 66 65 63 61 60 60 60 60 60 60
66 67 67 67 67 68 69 68 68 67 68 64 58 56 57 57 56 56 58 59 59 59
67 67 67 67 67 67 67 67 67 65 62 59 53 50 48 51 52 53 54 57 60 58
66 66 65 65 65 62 61 61 62 60 57 53 49 44 46 47 49 52 54 56 56 58
66 66 65 63 60 58 57 58 57 57 54 49 47 43 43 45 48 52 54 53 54 55
66 64 62 59 57 57 58 56 55 54 51 50 45 42 42 42 52 54 53 53 52 51
64 61 59 56 55 56 55 55 55 53 52 49 44 41 41 43 49 50 49 50 48 47
62 59 56 55 55 55 56 55 56 53 53 49 46 41 41 41 46 43 44 47 47 45
58 55 56 55 56 55 55 54 52 52 52 51 47 42 41 41 42 41 41 45 46 48
MSLP
1007.07 1008.22 1009.16 1009.66 1010.32 1011.10 1011.87 1012.22 1011.86 1012.48 1012.88 1013.02 1013.66 1013.76 1014.21 1014.42 1014.48 1014.59 1014.74 1014.88 1014.90 1014.89
1007.84 1008.75 1009.52 1010.45 1011.08 1011.75 1012.44 1012.73 1012.66 1012.74 1012.98 1012.91 1013.37 1014.01 1014.32 1014.43 1014.43 1014.19 1014.53 1014.68 1014.58 1014.51
1008.45 1009.45 1010.27 1010.85 1011.36 1011.83 1012.32 1012.62 1013.00 1012.88 1012.92 1013.05 1013.65 1014.14 1014.56 1014.53 1014.44 1014.54 1014.45 1014.41 1014.43 1014.44
1009.32 1010.18 1010.70 1011.16 1011.80 1012.28 1012.47 1012.64 1013.01 1013.31 1013.27 1013.58 1014.07 1014.43 1014.61 1014.53 1014.49 1014.51 1014.52 1014.45 1014.48 1014.56
1009.65 1010.31 1010.97 1011.66 1012.38 1012.65 1013.03 1013.19 1013.27 1013.48 1013.69 1014.16 1014.47 1014.55 1014.70 1014.66 1014.95 1015.15 1014.96 1014.71 1014.64 1014.76
1010.09 1010.69 1011.39 1012.04 1012.59 1013.06 1013.49 1013.65 1013.89 1013.83 1014.01 1014.37 1014.59 1014.83 1015.15 1015.51 1015.81 1015.62 1015.25 1015.04 1014.93 1014.66
1010.61 1011.15 1011.79 1012.34 1012.82 1013.11 1013.49 1013.76 1014.08 1014.25 1014.46 1015.05 1015.73 1016.22 1016.51 1016.62 1016.53 1016.18 1015.67 1015.39 1015.05 1014.76
1011.05 1011.61 1012.18 1012.69 1013.18 1013.56 1013.72 1014.14 1014.40 1014.72 1015.39 1015.92 1016.84 1017.65 1017.73 1017.44 1016.89 1016.61 1016.19 1015.54 1015.02 1014.87
1011.65 1012.27 1012.93 1013.35 1013.79 1014.39 1014.67 1015.13 1015.38 1015.75 1016.31 1016.85 1017.90 1018.39 1018.24 1018.00 1017.43 1016.85 1016.16 1015.49 1015.20 1014.98
1012.15 1012.80 1013.49 1014.23 1014.96 1015.45 1015.70 1015.89 1016.20 1016.40 1016.97 1017.83 1018.54 1018.80 1018.58 1018.12 1017.54 1016.83 1016.12 1015.89 1015.55 1015.39
1012.87 1013.65 1014.61 1015.27 1015.83 1016.06 1016.17 1016.41 1016.78 1017.24 1017.86 1018.37 1019.31 1019.35 1018.94 1018.37 1017.40 1016.62 1016.39 1016.24 1015.90 1015.84
1013.77 1014.51 1015.51 1016.00 1016.44 1016.55 1016.69 1016.96 1017.31 1017.88 1018.26 1018.76 1019.65 1019.70 1019.40 1018.75 1017.81 1017.30 1017.03 1016.76 1016.59 1016.52
1014.94 1015.66 1016.17 1016.77 1016.99 1017.17 1017.17 1017.63 1017.65 1018.17 1018.54 1018.91 1019.42 1019.65 1019.50 1019.24 1018.66 1018.30 1017.72 1017.02 1016.74 1016.58
1015.97 1016.51 1016.88 1017.40 1017.52 1017.62 1017.76 1017.93 1018.13 1018.29 1018.43 1018.81 1019.20 1019.71 1019.57 1019.45 1019.22 1018.87 1018.29 1017.60 1017.08 1016.68
Wind_Speed
15 9 8 8 8 6 4 4 8 6 5 7 5 3 3 2 3 1 1 3 4 3
12 11 9 9 7 6 6 6 5 6 6 6 4 4 4 4 1 0 2 4 5 3
11 11 10 9 10 8 7 8 5 5 4 5 4 3 3 4 5 5 2 3 4 4
12 12 11 10 9 8 7 7 6 4 3 4 3 5 3 4 5 4 6 5 5 5
12 12 11 10 9 8 6 4 5 6 6 6 3 3 3 4 8 6 7 6 6 6
13 12 12 10 8 8 7 5 4 3 3 3 4 7 9 9 10 9 9 8 6 5
12 11 10 9 8 6 6 5 4 5 4 11 12 13 11 10 9 10 10 10 9 7
11 10 10 9 8 6 6 5 7 9 11 12 13 10 11 10 10 10 10 11 9 4
12 11 9 8 7 11 12 10 9 10 10 11 9 14 16 13 9 9 10 8 5 5
11 10 11 11 11 9 8 8 8 7 9 12 11 15 16 18 8 8 5 7 6 6
12 12 11 11 8 6 5 6 6 9 8 9 9 15 17 20 8 7 9 8 8 7
11 12 11 10 7 5 5 5 8 8 7 8 9 14 16 15 9 9 9 9 6 7
12 11 11 8 7 6 6 6 5 6 5 7 9 11 14 14 7 9 8 9 2 8
11 10 9 7 5 5 4 4 4 4 3 6 6 9 12 12 8 7 7 7 7 6
Wind_Direction
107 123 131 128 124 112 122 123 104 102 107 136 179 150 160 260 214 160 101 277 249 261
121 122 125 123 121 121 117 122 136 137 142 99 71 51 29 308 350 152 358 318 275 260
98 105 113 124 120 123 125 105 98 98 106 107 100 77 36 348 5 349 274 295 347 321
110 113 111 105 105 95 98 101 99 94 85 105 66 57 24 342 284 325 11 359 4 343
113 110 108 107 111 118 125 135 101 65 53 44 20 50 317 318 33 14 352 348 341 326
110 109 108 115 112 105 107 106 111 121 81 36 19 12 41 31 19 2 344 340 328 303
109 109 111 116 115 103 92 82 74 60 29 56 54 41 24 15 1 348 337 321 314 323
103 104 96 89 85 83 71 64 38 48 59 68 57 36 16 0 354 332 314 302 305 27
98 93 89 86 76 53 51 43 51 54 66 74 57 28 17 2 328 313 305 301 356 351
94 94 80 66 64 58 57 58 59 62 75 64 48 23 12 349 316 286 346 14 2 353
91 84 78 74 70 66 61 54 57 68 80 84 52 30 15 341 329 352 11 352 11 27
81 77 80 69 58 46 61 54 67 67 73 90 60 42 19 353 354 5 352 354 36 44
82 78 74 67 55 39 55 51 47 91 81 59 96 53 34 13 3 0 344 338 135 68
82 80 84 87 84 81 87 106 108 120 120 98 49 67 44 19 5 355 340 337 346 336